• In Uzbekistan
  • List of Countries
  • For 7 days
  • Water Temperature
  • Weather Map
  • Weather Widgets
  • user-avatar
    Login

    Hourly Weather Borovec

    Today, 5 June, Friday

    Time Temperature Precipitation Wind Pressure Humidity
    00:00 +14°C° 0 mm 1 mps 706 mmHg 80%
    01:00 +13°C° 0 mm 1 mps 706 mmHg 82%
    02:00 +13°C° 0 mm 1 mps 706 mmHg 83%
    03:00 +13°C° 0 mm 1 mps 706 mmHg 84%
    04:00 +13°C° 0 mm 1 mps 706 mmHg 85%
    05:00 +12°C° 0 mm 1 mps 705 mmHg 86%
    06:00 +14°C° 0 mm 1 mps 706 mmHg 80%
    07:00 +16°C° 0 mm 2 mps 706 mmHg 74%
    08:00 +20°C° 0 mm 1 mps 706 mmHg 68%
    09:00 +20°C° 0 mm 2 mps 707 mmHg 61%
    10:00 +22°C° 0 mm 3 mps 707 mmHg 54%
    11:00 +24°C° 0 mm 3 mps 707 mmHg 47%
    12:00 +25°C° 0 mm 4 mps 707 mmHg 46%
    13:00 +26°C° 0 mm 4 mps 706 mmHg 44%
    14:00 +27°C° 0 mm 3 mps 706 mmHg 42%
    15:00 +27°C° 0 mm 3 mps 706 mmHg 47%
    16:00 +26°C° 0 mm 3 mps 706 mmHg 52%
    17:00 +25°C° 0 mm 3 mps 706 mmHg 57%
    18:00 +23°C° 0 mm 2 mps 706 mmHg 63%
    19:00 +21°C° 0 mm 2 mps 706 mmHg 69%
    20:00 +20°C° 0 mm 1 mps 705 mmHg 74%
    21:00 +19°C° 0 mm 1 mps 706 mmHg 77%
    22:00 +18°C° 0 mm 1 mps 706 mmHg 80%
    23:00 +16°C° 0 mm 1 mps 706 mmHg 83%

    Tomorrow, 6 June, Saturday

    Time Temperature Precipitation Wind Pressure Humidity
    00:00 +16°C° 0 mm 1 mps 706 mmHg 85%
    01:00 +16°C° 0 mm 1 mps 706 mmHg 87%
    02:00 +15°C° 0 mm 1 mps 706 mmHg 89%
    03:00 +15°C° 0 mm 1 mps 706 mmHg 89%
    04:00 +15°C° 0 mm 1 mps 706 mmHg 89%
    05:00 +15°C° 0 mm 1 mps 706 mmHg 89%
    06:00 +16°C° 0 mm 1 mps 706 mmHg 85%
    07:00 +18°C° 0 mm 1 mps 706 mmHg 80%
    08:00 +19°C° 0 mm 1 mps 706 mmHg 75%
    09:00 +21°C° 0.1 mm 1 mps 707 mmHg 68%
    10:00 +23°C° 0.1 mm 1 mps 707 mmHg 61%
    11:00 +24°C° 0.1 mm 2 mps 707 mmHg 54%
    12:00 +25°C° 0.1 mm 2 mps 707 mmHg 53%
    13:00 +25°C° 0.1 mm 2 mps 707 mmHg 52%
    14:00 +26°C° 0.1 mm 3 mps 706 mmHg 51%
    15:00 +25°C° 0.3 mm 3 mps 706 mmHg 54%
    16:00 +25°C° 0.3 mm 4 mps 706 mmHg 57%
    17:00 +23°C° 0.3 mm 4 mps 705 mmHg 60%
    18:00 +21°C° 0.1 mm 3 mps 705 mmHg 63%
    19:00 +19°C° 0.1 mm 2 mps 705 mmHg 67%
    20:00 +18°C° 0.1 mm 1 mps 705 mmHg 70%
    21:00 +16°C° 0 mm 1 mps 705 mmHg 72%
    22:00 +16°C° 0 mm 1 mps 705 mmHg 74%
    23:00 +15°C° 0 mm 1 mps 705 mmHg 76%

    Day after tomorrow, 7 June, Sunday

    Time Temperature Precipitation Wind Pressure Humidity
    00:00 +15°C° 0 mm 1 mps 705 mmHg 77%
    01:00 +15°C° 0 mm 1 mps 705 mmHg 78%
    02:00 +13°C° 0 mm 0 mps 705 mmHg 78%
    03:00 +13°C° 0 mm 0 mps 705 mmHg 80%
    04:00 +14°C° 0 mm 1 mps 705 mmHg 81%
    05:00 +13°C° 0 mm 1 mps 705 mmHg 82%
    06:00 +14°C° 0 mm 0 mps 705 mmHg 78%
    07:00 +15°C° 0 mm 0 mps 706 mmHg 74%
    08:00 +17°C° 0 mm 0 mps 706 mmHg 71%
    09:00 +19°C° 0.2 mm 0 mps 706 mmHg 67%
    10:00 +20°C° 0.2 mm 0 mps 706 mmHg 64%
    11:00 +22°C° 0.2 mm 0 mps 706 mmHg 61%
    12:00 +24°C° 0.8 mm 1 mps 706 mmHg 61%
    13:00 +24°C° 0.8 mm 1 mps 706 mmHg 61%
    14:00 +25°C° 0.8 mm 1 mps 706 mmHg 61%
    15:00 +24°C° 1.3 mm 1 mps 706 mmHg 65%
    16:00 +23°C° 1.3 mm 1 mps 706 mmHg 69%
    17:00 +23°C° 1.3 mm 1 mps 705 mmHg 73%
    18:00 +21°C° 0.8 mm 1 mps 705 mmHg 76%
    19:00 +18°C° 0.8 mm 0 mps 705 mmHg 80%
    20:00 +16°C° 0.8 mm 0 mps 705 mmHg 83%
    21:00 +16°C° 0 mm 0 mps 705 mmHg 84%
    22:00 +16°C° 0 mm 1 mps 706 mmHg 85%
    23:00 +15°C° 0 mm 1 mps 706 mmHg 85%

    8 June, Monday

    Time Temperature Precipitation Wind Pressure Humidity
    00:00 +15°C° 0 mm 1 mps 706 mmHg 86%
    01:00 +15°C° 0 mm 1 mps 706 mmHg 87%
    02:00 +15°C° 0 mm 1 mps 706 mmHg 88%
    03:00 +14°C° 0 mm 1 mps 706 mmHg 89%
    04:00 +14°C° 0 mm 1 mps 706 mmHg 90%
    05:00 +13°C° 0 mm 0 mps 706 mmHg 90%
    06:00 +15°C° 0 mm 1 mps 706 mmHg 87%
    07:00 +18°C° 0 mm 1 mps 706 mmHg 83%
    08:00 +20°C° 0 mm 1 mps 707 mmHg 79%
    09:00 +21°C° 0.1 mm 1 mps 707 mmHg 73%
    10:00 +23°C° 0.1 mm 1 mps 707 mmHg 66%
    11:00 +25°C° 0.1 mm 1 mps 707 mmHg 60%
    12:00 +25°C° 0.6 mm 2 mps 707 mmHg 60%
    13:00 +25°C° 0.6 mm 2 mps 707 mmHg 61%
    14:00 +25°C° 0.6 mm 2 mps 707 mmHg 61%
    15:00 +25°C° 1.3 mm 2 mps 706 mmHg 64%
    16:00 +25°C° 1.3 mm 1 mps 706 mmHg 67%
    17:00 +24°C° 1.3 mm 1 mps 706 mmHg 70%
    18:00 +22°C° 0.6 mm 1 mps 706 mmHg 74%
    19:00 +21°C° 0.6 mm 1 mps 706 mmHg 78%
    20:00 +17°C° 0.6 mm 0 mps 706 mmHg 82%
    21:00 +17°C° 0.1 mm 0 mps 706 mmHg 83%
    22:00 +16°C° 0.1 mm 0 mps 706 mmHg 83%
    23:00 +15°C° 0.1 mm 0 mps 706 mmHg 84%

    9 June, Tuesday

    Time Temperature Precipitation Wind Pressure Humidity
    00:00 +15°C° 0 mm 0 mps 706 mmHg 85%
    01:00 +15°C° 0 mm 0 mps 706 mmHg 85%
    02:00 +14°C° 0 mm 0 mps 706 mmHg 86%
    03:00 +14°C° 0 mm 0 mps 706 mmHg 87%
    04:00 +14°C° 0 mm 0 mps 706 mmHg 87%
    05:00 +13°C° 0 mm 0 mps 706 mmHg 88%
    06:00 +16°C° 0 mm 1 mps 707 mmHg 84%
    07:00 +19°C° 0 mm 1 mps 707 mmHg 80%
    08:00 +21°C° 0 mm 1 mps 708 mmHg 76%
    09:00 +22°C° 0.5 mm 1 mps 708 mmHg 71%
    10:00 +24°C° 0.5 mm 1 mps 708 mmHg 66%
    11:00 +25°C° 0.5 mm 1 mps 708 mmHg 61%
    12:00 +26°C° 0.4 mm 1 mps 708 mmHg 57%
    13:00 +27°C° 0.4 mm 1 mps 708 mmHg 52%
    14:00 +28°C° 0.4 mm 2 mps 707 mmHg 48%
    15:00 +27°C° 0.4 mm 2 mps 707 mmHg 52%
    16:00 +27°C° 0.4 mm 2 mps 707 mmHg 55%
    17:00 +26°C° 0.4 mm 2 mps 707 mmHg 59%
    18:00 +24°C° 0.4 mm 2 mps 707 mmHg 65%
    19:00 +22°C° 0.4 mm 1 mps 707 mmHg 71%
    20:00 +20°C° 0.4 mm 1 mps 707 mmHg 77%
    21:00 +20°C° 0.2 mm 1 mps 707 mmHg 78%
    22:00 +17°C° 0.2 mm 0 mps 707 mmHg 79%
    23:00 +16°C° 0.2 mm 0 mps 707 mmHg 81%

    10 June, Wednesday

    Time Temperature Precipitation Wind Pressure Humidity
    00:00 +16°C° 0.1 mm 0 mps 707 mmHg 81%
    01:00 +18°C° 0.1 mm 1 mps 707 mmHg 82%
    02:00 +16°C° 0.1 mm 1 mps 707 mmHg 83%
    03:00 +16°C° 0 mm 1 mps 707 mmHg 84%
    04:00 +14°C° 0 mm 0 mps 707 mmHg 84%
    05:00 +14°C° 0 mm 0 mps 707 mmHg 85%
    06:00 +16°C° 0 mm 0 mps 707 mmHg 81%
    07:00 +18°C° 0 mm 0 mps 708 mmHg 77%
    08:00 +20°C° 0 mm 0 mps 708 mmHg 72%
    09:00 +24°C° 0.2 mm 1 mps 708 mmHg 65%
    10:00 +25°C° 0.2 mm 1 mps 708 mmHg 58%
    11:00 +27°C° 0.2 mm 1 mps 709 mmHg 50%
    12:00 +28°C° 0.1 mm 1 mps 708 mmHg 48%
    13:00 +28°C° 0.1 mm 2 mps 708 mmHg 46%
    14:00 +29°C° 0.1 mm 2 mps 708 mmHg 44%
    15:00 +28°C° 0.2 mm 2 mps 708 mmHg 50%
    16:00 +27°C° 0.2 mm 2 mps 707 mmHg 55%
    17:00 +26°C° 0.2 mm 2 mps 707 mmHg 60%
    18:00 +24°C° 0.5 mm 2 mps 707 mmHg 66%
    19:00 +22°C° 0.5 mm 1 mps 707 mmHg 73%
    20:00 +20°C° 0.5 mm 1 mps 707 mmHg 79%
    21:00 +19°C° 0.3 mm 1 mps 707 mmHg 80%
    22:00 +19°C° 0.3 mm 1 mps 707 mmHg 80%
    23:00 +16°C° 0.3 mm 0 mps 707 mmHg 81%
    Show more